This demonstration page uses our WeatherBlox Daily Observations layout. Learn more.

Left ArrowRight Arrow

Hourly Observations for February 16, 2016

Temp ( °F °C ) Dew Point ( °F °C ) Humidity (%) Winds ( mph kmh ) Pressure ( in mb ) Visibility ( mi km ) Precip ( " mm )
12:53 am 00:53 Clear 53 11.7 45 7.2 74 74 NW 3 6 30.05 1018 10 16 0.00 0.00
1:53 am 01:53 Clear 52 11.1 44 6.7 75 75 N 3 6 30.03 1017 10 16 0.00 0.00
2:53 am 02:53 Clear 52 11.1 44 6.7 75 75 NNW 5 7 30.03 1017 10 16 0.00 0.00
3:53 am 03:53 Clear 49 9.4 43 6.1 80 80 NNW 5 7 30.01 1016 10 16 0.00 0.00
4:53 am 04:53 Clear 54 12.2 43 6.1 67 67 NW 7 11 30.00 1016 10 16 0.00 0.00
5:53 am 05:53 Clear 47 8.3 41 5 80 80 SE 3 6 30.01 1016 10 16 0.00 0.00
6:53 am 06:53 Clear 47 8.3 42 5.6 83 83 Calm 30.03 1017 10 16 0.00 0.00
7:53 am 07:53 Sunny 47 8.3 42 5.6 83 83 NNE 3 6 30.04 1017 10 16 0.00 0.00
8:53 am 08:53 Sunny 58 14.4 45 7.2 62 62 Calm 30.04 1017 10 16 0.00 0.00
9:53 am 09:53 Sunny 62 16.7 44 6.7 52 52 N 7 11 30.02 1017 10 16 0.00 0.00
10:53 am 10:53 Sunny 65 18.3 45 7.2 49 49 VRB 3 6 30.01 1016 10 16 0.00 0.00
11:53 am 11:53 Sunny 67 19.4 45 7.2 45 45 NNE 3 6 29.98 1015 10 16 0.00 0.00
12:53 pm 12:53 Sunny 70 21.1 45 7.2 41 41 Calm 29.94 1014 10 16 0.00 0.00
1:53 pm 13:53 Sunny 71 21.7 46 7.8 41 41 S 3 6 29.90 1013 10 16 0.00 0.00
2:53 pm 14:53 Sunny 73 22.8 45 7.2 37 37 NE 3 6 29.87 1012 10 16 0.00 0.00
3:53 pm 15:53 Sunny 71 21.7 46 7.8 41 41 Calm 29.84 1010 10 16 0.00 0.00
4:53 pm 16:53 Sunny 69 20.6 48 8.9 47 47 Calm 29.81 1010 10 16 0.00 0.00
5:53 pm 17:53 Clear 65 18.3 49 9.4 56 56 Calm 29.79 1009 10 16 0.00 0.00
6:53 pm 18:53 Clear 62 16.7 48 8.9 60 60 Calm 29.78 1009 10 16 0.00 0.00
7:53 pm 19:53 Clear 61 16.1 48 8.9 63 63 N 3 6 29.75 1008 10 16 0.00 0.00
8:53 pm 20:53 Clear 58 14.4 48 8.9 70 70 Calm 29.72 1007 10 16 0.00 0.00
9:53 pm 21:53 Clear 56 13.3 48 8.9 75 75 SW 3 6 29.70 1006 10 16 0.00 0.00
10:53 pm 22:53 Clear 56 13.3 47 8.3 72 72 Calm 29.68 1005 10 16 0.00 0.00
11:53 pm 23:53 Clear 53 11.7 48 8.9 83 83 Calm 29.67 1005 10 16 0.00 0.00

Powered by AerisWeather